CW1334 Weather Reports


Display with metric or nautical units.
time (UTC)temp
F
wind
direction
speed
MPH
gust
MPH
rain 1hr
in
rain 24hr
in
rain mn
in
humidity
%
barometer
mb
20181210112518 22 30 1.0 3.0 0.00 0.00 0.00 76 1013.0
20181210111618 22 30 1.0 2.0 0.00 0.00 0.00 76 1013.1
20181210104018 22 29 3.0 8.0 0.00 0.00 0.00 77 1013.3
20181210103118 21 38 2.0 5.0 0.00 0.00 0.00 78 1013.4
20181210102218 21 51 1.0 5.0 0.00 0.00 0.00 77 1013.4
20181210095518 20 56 1.0 4.0 0.00 0.00 0.00 77 1013.5
20181210090118 21 63 1.0 3.0 0.00 0.00 0.00 78 1013.7
20181210084318 21 47 2.0 5.0 0.00 0.00 0.00 78 1013.9
20181210083418 20 43 1.0 4.0 0.00 0.00 0.00 76 1013.9
20181210081618 23 43 2.0 4.0 0.00 0.00 0.00 71 1013.9
20181210080718 24 43 1.0 3.0 0.00 0.00 0.00 76 1013.9
20181210074918 24 43 2.0 3.0 0.00 0.00 0.00 77 1014.0
20181210073118 20 43 1.0 3.0 0.00 0.00 0.00 81 1014.4
20181210070417 19 0 0.0 0.0 0.00 0.00 0.00 80 1014.8
20181210065518 19 43 1.0 3.0 0.00 0.00 0.00 79 1014.9
20181210064618 19 45 1.0 5.0 0.00 0.00 0.00 79 1015.1
20181210063718 19 59 0.0 3.0 0.00 0.00 0.00 79 1015.3
20181210062818 19 0 0.0 0.0 0.00 0.00 0.00 78 1015.1
20181210061918 20 0 0.0 0.0 0.00 0.00 0.00 77 1015.2
20181210060118 21 0 0.0 0.0 0.00 0.00 0.00 77 1015.5
20181210055217 21 0 0.0 0.0 0.00 0.00 0.00 77 1015.6
20181210053417 22 127 1.0 3.0 0.00 0.00 0.00 79 1015.6
20181210051617 20 124 2.0 3.0 0.00 0.00 0.00 80 1015.6
20181210050717 20 119 1.0 4.0 0.00 0.00 0.00 81 1015.8
20181210044017 19 90 2.0 4.0 0.00 0.00 0.00 82 1016.0
20181210042217 18 0 0.0 0.0 0.00 0.00 0.00 81 1016.2
20181210034617 17 87 1.0 2.0 0.00 0.00 0.00 84 1016.6
20181210033717 16 72 2.0 4.0 0.00 0.00 0.00 84 1016.8
20181210032817 15 33 2.0 5.0 0.00 0.00 0.00 83 1016.8
20181210031917 14 23 3.0 8.0 0.00 0.00 0.00 82 1017.0
20181210031017 13 316 2.0 4.0 0.00 0.00 0.00 81 1017.0
20181210025217 18 294 2.0 4.0 0.00 0.00 0.00 83 1017.1
20181210024317 17 21 0.0 3.0 0.00 0.00 0.00 85 1017.0
20181210022517 14 0 0.0 0.0 0.00 0.00 0.00 84 1017.0
20181210015817 15 23 2.0 4.0 0.00 0.00 0.00 83 1017.1
20181210014017 14 23 2.0 4.0 0.00 0.00 0.00 82 1017.1
20181210004617 18 29 2.0 3.0 0.00 0.00 0.00 79 1017.6
20181210001917 20 19 2.0 5.0 0.00 0.00 0.00 75 1017.7
20181210001017 22 0 0.0 0.0 0.00 0.00 0.00 71 1017.7
20181210000117 24 0 0.0 0.0 0.00 0.00 0.00 71 1017.7
20181209233417 29 0 0.0 0.0 0.00 0.00 0.00 69 1018.0
20181209231617 30 0 0.0 0.0 0.00 0.00 0.00 67 1018.0
20181209225817 32 0 0.0 0.0 0.00 0.00 0.00 64 1018.1
20181209222216 34 0 0.0 0.0 0.00 0.00 0.00 60 1018.4
20181209220416 36 0 0.0 0.0 0.00 0.00 0.00 58 1018.5
20181209215517 36 0 0.0 0.0 0.00 0.00 0.00 58 1018.6
20181209212817 36 0 0.0 0.0 0.00 0.00 0.00 58 1018.7
20181209210117 34 272 3.0 6.0 0.00 0.00 0.00 61 1019.1
20181209202516 33 223 3.0 5.0 0.00 0.00 0.00 63 1019.2
20181209200716 31 235 4.0 7.0 0.00 0.00 0.00 64 1019.5
20181209194916 30 171 3.0 6.0 0.00 0.00 0.00 65 1019.7
20181209194016 29 167 1.0 4.0 0.00 0.00 0.00 64 1019.9
20181209193116 28 168 2.0 5.0 0.00 0.00 0.00 65 1020.0
20181209191316 28 217 4.0 6.0 0.00 0.01 0.00 67 1020.3
20181209190416 27 220 4.0 6.0 0.00 0.01 0.00 68 1020.6
20181209185516 27 229 3.0 5.0 0.00 0.01 0.00 68 1020.7
20181209181916 24 179 1.0 4.0 0.00 0.01 0.00 73 1021.2
20181209181016 24 178 2.0 4.0 0.00 0.01 0.00 73 1021.2
20181209180116 24 178 2.0 3.0 0.00 0.01 0.00 73 1021.5
20181209174316 23 352 1.0 3.0 0.00 0.01 0.00 74 1021.5
20181209173416 21 353 1.0 2.0 0.00 0.01 0.00 77 1021.8
20181209172516 19 352 1.0 3.0 0.00 0.01 0.00 78 1022.0
20181209171616 16 348 0.0 3.0 0.00 0.01 0.00 78 1022.0
20181209164016 10 354 1.0 2.0 0.00 0.01 0.00 80 1022.3
20181209163116 10 354 1.0 3.0 0.00 0.01 0.00 80 1022.3
20181209161316 8 354 0.0 2.0 0.00 0.01 0.00 81 1022.5
20181209160416 8 358 0.0 1.0 0.00 0.01 0.00 80 1022.4
20181209154616 6 354 1.0 3.0 0.00 0.01 0.00 80 1022.6
20181209153716 4 354 1.0 3.0 0.00 0.01 0.00 80 1022.7
20181209151916 3 354 2.0 3.0 0.00 0.01 0.00 79 1022.6
20181209143416 2 353 3.0 4.0 0.00 0.01 0.00 79 1022.8
20181209141615 2 18 2.0 5.0 0.00 0.01 0.00 79 1023.0
20181209140715 2 20 2.0 3.0 0.00 0.01 0.00 80 1023.1
20181209134915 1 17 2.0 4.0 0.00 0.01 0.00 80 1023.0
20181209133116 3 349 2.0 4.0 0.00 0.01 0.00 80 1023.2
20181209132215 4 4 2.0 4.0 0.00 0.01 0.00 81 1023.2
20181209125516 1 21 1.0 3.0 0.00 0.01 0.00 80 1023.2
20181209124616 0 20 0.0 2.0 0.00 0.01 0.00 79 1023.2
20181209123716 0 21 1.0 2.0 0.00 0.01 0.00 79 1023.2
20181209121915 2 34 2.0 5.0 0.00 0.01 0.00 80 1023.3
20181209121015 2 35 1.0 3.0 0.00 0.01 0.00 81 1023.3
20181209120115 2 34 1.0 2.0 0.00 0.01 0.00 81 1023.3
20181209114315 1 34 2.0 4.0 0.00 0.01 0.00 80 1023.5
20181209113415 1 34 2.0 4.0 0.00 0.01 0.00 80 1023.6